Welcome to the New NWS' Forecast!
Most changes are behind the scenes, but click here for differences you might notice.
Latest weather observations around

Boyd Deep Canyon Reserve (UCNRS) (UCDE)

Using English Units (Switch to International System of Units)
Date/ Time (PDT) Wind (mph) Vis. (mi) Weather Sky Cond. Temp (°F) Rel. Humidity Wind Chill (°F) Heat Index (°F) Pressure Precip. (in)
Air Dwpt 6 hour Altimeter (inHg) Sea level (inHg) 1 hr 3 hr 6 hr
Max Min
Sep 23 07:00 ENE 2   Clear   64 40     41%     29.72        
Notice The following observation data may not be complete
Sep 23 06:50     Clear            %              
Sep 23 06:40 SW 7   Clear   67 28     23%     29.71        
Sep 23 06:30 SSW 9   Clear   67 28     23%              
Sep 23 06:20 SSW 9   Clear   67        %     29.7        
Sep 23 06:10 SW 9   Clear   67        %     29.7        
Sep 23 06:00 SW 8   Clear   67 28     23%     29.7        
Sep 23 05:50 SW 7   Clear   66        %     29.7        
Sep 23 05:40 SW 4   Clear   63 36     37%     29.7        
Sep 23 05:30 NE 4   Clear   62 44     51%     29.7        
Sep 23 05:20 NE 4   Clear   62 44     52%     29.7        
Sep 23 05:10 ENE 4   Clear   63 42     46%     29.69        
Sep 23 05:00 SSE 5   Clear   67 34     30%     29.69        
Notice The following observation data may not be complete
Sep 23 04:40     Clear            %              
Sep 23 04:30 SSW 9   Clear   67 30     25%     29.68        
Sep 23 04:20 S 10   Clear   68 31     25%     29.68        
Sep 23 04:10 S 12   Clear   68 31     25%     29.68        
Sep 23 04:00 S 12   Clear   67 30     25%     29.69        
Notice The following observation data may not be complete
Sep 23 03:50     Clear            %              
Notice The following observation data may not be complete
Sep 23 03:40     Clear            %              
Notice The following observation data may not be complete
Sep 23 03:30     Clear            %              
Notice The following observation data may not be complete
Sep 23 03:20     Clear            %              
Notice The following observation data may not be complete
Sep 23 03:10     Clear            %              
Sep 23 03:00 WSW 5   Clear   65 39     38%     29.69        
Sep 23 02:50 ENE 2   Clear   64 40     41%     29.69        
Sep 23 02:40 NE 1   Clear   65 39     38%     29.69        
Sep 23 02:30 SW 5   Clear   67 31     26%     29.69        
Sep 23 02:20 SSW 4   Clear   66 35     31%     29.69        
Sep 23 02:10 WSW 3   Clear   64 42     45%     29.69        
Sep 23 02:00 NE 3   Clear   63 44     50%     29.69        
Notice The following observation data may not be complete
Sep 23 01:50     Clear            %              
Notice The following observation data may not be complete
Sep 23 01:40     Clear            %              
Sep 23 01:30 ENE 3   Clear   65 44     47%     29.69        
Sep 23 01:20 SW 4   Clear   68 35     30%     29.69        
Sep 23 01:10 SW 8   Clear   68 35     29%     29.69        
Sep 23 01:00 WSW 9   Clear   68 35     29%     29.69        
Sep 23 00:50 SW 5   Clear   68 35     29%     29.69        
Sep 23 00:40 SSW 5   Clear   68 35     29%     29.69        
Sep 23 00:30 S 8   Clear   69 35     28%     29.69        
Sep 23 00:20 S 8   Clear   69 34     28%     29.69        
Sep 23 00:10 SSW 9   Clear   69 34     28%     29.69        
Sep 23 00:00 SW 10   Clear   69 34     28%     29.69        
Notice The following observation data may not be complete
Sep 22 23:50     Clear            %              
Sep 22 23:40 SW 9   Clear   69 35     28%     29.69        
Sep 22 23:30 SW 11   Clear   69 35     28%     29.69        
Sep 22 23:20 SW 10   Clear   69 36     29%     29.69        
Sep 22 23:10 SSW 11   Clear   69 37     30%     29.69        
Sep 22 22:20 S 10   Clear   70 39     33%     29.69        
Sep 22 22:10 S 13   Clear   70 39     33%     29.69        
Sep 22 22:00     Clear   70 39     33%     29.69        
Notice The following observation data may not be complete
Sep 22 21:50     Clear            %              
Sep 22 20:50     Clear   70 43     37%   69 29.68        
Sep 22 20:40 S 13   Clear   70 43     37%   69 29.68        
Sep 22 20:30 S 13   Clear   70 43     37%   69 29.68        
Sep 22 20:20 S 13   Clear   71 42     36%   69 29.68        
Sep 22 20:10 S 11   Clear   71 42     35%   69 29.68        
Sep 22 20:00 S 9   Clear   71 41     34%   70 29.68        
Notice The following observation data may not be complete
Sep 22 19:50     Clear            %              
Sep 22 19:40 S 10   Clear   72 41     32%   71 29.67        
Sep 22 19:30 S 11   Clear   73 39     30%   71 29.67        
Sep 22 19:20 S 10   Clear   73 36     26%   72 29.67        
Sep 22 19:10 SSW 8   Clear   74 37     26%   72 29.67        
Sep 22 19:00 S 8   Clear   74 36     25%   73 29.67        
Sep 22 18:50 SSW 8   Clear   75 35     23%   73 29.67        
Sep 22 18:40 SSW 7   Clear   75 34     22%   74 29.67        
Sep 22 18:30 SSW 9   Clear   76 33     21%   74 29.67        
Sep 22 18:20 S 11   Clear   76 33     21%   74 29.67        
Sep 22 18:10 SSW 8   Clear   76 32     20%   75 29.68        
Sep 22 18:00 SW 1   Clear   77 33     20%   75 29.68        
Notice The following observation data may not be complete
Sep 22 17:50     Clear            %              
Sep 22 17:40 NNE 2   Clear   79 33     19%   77 29.69        
Sep 22 17:30 N 5   Clear   79 32     18%   78 29.69        
Sep 22 17:20 NNW 2   Clear   79 32     18%   78 29.69        
Sep 22 17:10 N 6   Clear   79 33     19%   77 29.69        
Sep 22 17:00 NE 5   Clear   79 32     18%   78 29.69        
Sep 22 16:50 NNW 3   Clear   79 32     18%   78 29.69        
Sep 22 16:40 N 5   Clear   79 33     19%   77 29.7        
Sep 22 16:30 ESE 4   Clear   78 32     19%   77 29.7        
Sep 22 16:20 NNE 4   Clear   78 31     18%   77 29.7        
Sep 22 16:10 N 4   Clear   79 32     18%   77 29.71        
Sep 22 16:00 NNE 6   Clear   79 32     18%   77 29.71        
Sep 22 15:50 NNE 6   Clear   79 32     18%   78 29.71        
Sep 22 15:40 NNW 5   Clear   79 32     18%   77 29.71        
Sep 22 15:30 N 6   Clear   79 32     18%   77 29.71        
Sep 22 15:20 NNE 8   Clear   79 32     18%   77 29.71        
Sep 22 15:10 NNE 7   Clear   78 31     18%   77 29.72        
Sep 22 15:00 NNE 9   Clear   79 30     17%   77 29.72        
Notice The following observation data may not be complete
Sep 22 14:50     Clear            %              
Sep 22 14:40 NNW 4   Clear   78 28     16%   77 29.72        
Sep 22 14:30 NNE 6   Clear   79 29     16%   77 29.73        
Sep 22 14:20 N 6   Clear   78 29     17%   76 29.73        
Sep 22 14:10 N 6   Clear   78 29     17%   76 29.73        
Sep 22 14:00 NNE 6   Clear   78 29     17%   76 29.74        
Notice The following observation data may not be complete
Sep 22 13:50     Clear            %              
Sep 22 13:40 NNE 5   Clear   77 28     16%   75 29.74        
Sep 22 13:30 NNE 6   Clear   77 27     16%   75 29.75        
Sep 22 13:20 NNW 7   Clear   77 27     16%   75 29.75        
Sep 22 13:10 N 6   Clear   76 28     17%   74 29.75        
Sep 22 13:00 NNE 6   Clear   76 30     18%   74 29.75        
Notice The following observation data may not be complete
Sep 22 12:50     Clear            %              
Sep 22 12:40 N 6   Clear   76 29     18%   74 29.76        
Sep 22 12:30 N 7   Clear   76 26     16%   74 29.77        
Sep 22 12:20 N 4   Clear   76 27     16%   74 29.77        
Sep 22 12:10 NNW 4   Clear   76 28     17%   74 29.77        
Sep 22 12:00 NNE 4   Clear   75 31     20%   73 29.78        
Notice The following observation data may not be complete
Sep 22 11:50     Clear            %              
Sep 22 11:40 NW 1   Clear   74 34     23%   72 29.78        
Sep 22 11:30 N 4   Clear   73 36     26%   72 29.78        
Sep 22 11:20 NW 2   Clear   72 37     27%   71 29.79        
Sep 22 11:10 N 4   Clear   72 37     28%   70 29.79        
Sep 22 11:00 N 3   Clear   72 38     29%   71 29.79        
Sep 22 10:50 NNE 4   Clear   71 39     31%   69 29.79        
Sep 22 10:40 NNE 4   Clear   70 39     32%   68 29.79        
Sep 22 10:30 NNE 4   Clear   70 39     33%     29.79        
Sep 22 10:20 N 5   Clear   70 39     32%     29.79        
Sep 22 10:10 NNE 4   Clear   69 39     33%     29.79        
Notice The following observation data may not be complete
Sep 22 10:00     Clear            %              
Sep 20 10:20 N 6   Clear   78 50     37%   78 29.8        
Sep 20 10:10 NNW 5   Clear   79 50     36%   79 29.79        
Sep 20 10:00 N 3   Clear   78 51     38%   78 29.79        
Sep 20 09:50 N 4   Clear   78 51     39%   77 29.79        
Sep 20 09:40 N 3   Clear   79 51     38%   78 29.79        
Sep 20 09:30 SE 1   Clear   78 52     40%   77 29.79        
Sep 20 09:20 SE 2   Clear   78 52     40%   77 29.79        
Sep 20 09:10 SE 1   Clear   78 52     41%   78 29.79        
Sep 20 09:00 NNE 2   Clear   76 53     46%   75 29.79        
Sep 20 08:50 N 2   Clear   76 53     45%   75 29.78        
Sep 20 08:40 NNE 1   Clear   76 53     44%   76 29.78        
Sep 20 08:30 NNE 1   Clear   74 53     47%   74 29.77        
Sep 20 08:20 N 2   Clear   74 53     47%   74 29.77        
Sep 20 08:10 Calm   Clear   74 53     47%   74 29.76        
Sep 20 08:00 NE 1   Clear   72 53     52%   71 29.76        
Notice The following observation data may not be complete
Sep 20 07:50     Clear            %              
Sep 20 07:40 N 1   Clear   74 52     47%   73 29.75        
Sep 20 07:30 Calm   Clear   71 52     52%   70 29.75        
Sep 20 07:20 SSW 2   Clear   68 53     58%     29.75        
Sep 20 07:10 SSW 3   Clear   67 52     59%     29.75